{"data":{"norad_id":37168,"epoch":"2026-05-25T05:55:43.835232Z","epoch_age_seconds":64411,"freshness":"FRESH","line1":"1 37168U 10048A   26145.24703513  .00003356  00000+0  16330-3 0  9993","line2":"2 37168  97.7364  30.2585 0079604 283.0400 193.4312 15.16374771848992","mean_motion":15.16374771,"eccentricity":0.0079604,"inclination_deg":97.7364,"raan_deg":30.2585,"arg_perigee_deg":283.04,"mean_anomaly_deg":193.4312,"bstar":0.0001633,"rev_number":84899,"period_min":94.963331462602,"perigee_km":461.92150611716,"apogee_km":571.69454689516,"semimajor_km":6894.9450265062,"source":"CELESTRAK","updated_at":"2026-05-25T13:37:55.224418Z"}}